Погода в Селезенихе

Россия / Кировская область     58°17′06″N   50°41′45″E
темп.,
°C
ветер,
м/с
пор.,
м/с
влажн.,
%
обл.,
%
осадки,
мм/ч
давл.,
гПа
погр.,
м
29 июня, ср
ср2900:00+5сз498647 0.0 1019222
03:00+4сз410914 0.0 1019198
06:00+9ссз597639 0.0 1018323
09:00+14с68585 0.0 10181278
12:00+17с68482 0.0 10171564
15:00+18с57485 0.0 10161808
18:00+16ссз3767100 0.0 1015195
21:00+12сз3568100 0.0 101570
30 июня, чт
чт3000:00+10сз4574100 0.0 101473
03:00+8зсз467799 0.0 101293
06:00+11сз487369 0.0 1011242
09:00+14ссз576299 0.0 1010974
12:00+15ссв8856100 0.2 10111807
15:00+12ссв695823 0.3 10131616
18:00+11св7106634 0.1 10141033
21:00+7ссв5117577 0.1 1015447
1 июля, пт
пт100:00+7с5117596 0.0 1015505
03:00+7ссв6127588 0.0 1015523
06:00+9св7137579 0.0 1016671
09:00+13св7106520 0.0 1017924
12:00+17св565216 0.0 10161687
15:00+18ссв5650100 0.0 10161952
18:00+17ссв35665 0.0 1016215
21:00+12с226898 0.0 101611
2 июля, сб
сб200:00+10зсз227125 0.0 101612
03:00+9сз3379100 0.0 101526
06:00+13сз3474100 0.0 1014176
09:00+16сз456789 0.0 1013482
12:00+16ссз3473100 0.0 1013434
15:00+17сз45726 0.0 1013743
18:00+17ссз35765 0.0 1012604
21:00+12ссз47935 0.0 1013114
3 июля, вс
вс300:00+11с389777 0.0 1012166
03:00+9ссз479725 0.0 1012143
06:00+12с588858 0.0 1011318
09:00+16с6774100 0.0 1010914
12:00+19с4756100 0.1 10091803
15:00+18ссз486874 0.3 10091094
18:00+15ссв3774100 0.1 1009242
21:00+13ссв2278100 0.1 101022